Revelstoke, Canada 16 day weather forecast

Slopes altitude range 510 m - 2225m

Number of lifts: 4 Pistes: -1km

In some cases the lift and piste totals shown are for the ski domain (e.g. Three Valleys) rather than individual resort (e.g. Courchevel)

Overview

The 16 day weather forecast is fully updated 4 times every day.

    • Sun 16 JUN 2019
    • Sun 16
    • 8C 10C
    • Mon 17 JUN 2019
    • Mon 17
    • 9C 12C
    • Tue 18 JUN 2019
    • Tue 18
    • 7C 11C
    • Wed 19 JUN 2019
    • Wed 19
    • 7C 11C
    • Thu 20 JUN 2019
    • Thu 20
    • 0C 3C
    • Fri 21 JUN 2019
    • Fri 21
    • 2C 3C
    • Sat 22 JUN 2019
    • Sat 22
    • 4C 7C
    • Sun 23 JUN 2019
    • Sun 23
    • 5C 7C
    • Mon 24 JUN 2019
    • Mon 24
    • 8C 9C
    • Tue 25 JUN 2019
    • Tue 25
    • 8C 10C
    • Wed 26 JUN 2019
    • Wed 26
    • 8C 19C
    • Thu 27 JUN 2019
    • Thu 27
    • 6C 15C
    • Fri 28 JUN 2019
    • Fri 28
    • 5C 13C
    • Sat 29 JUN 2019
    • Sat 29
    • 2C 15C
    • Sun 30 JUN 2019
    • Sun 30
    • 4C 18C
    • Mon 01 JUL 2019
    • Mon 01
    • 7C 19C

Date:

Time Type 0°C level Temp Chill Snow Cloud Speed Gust Dir Press
12:00 3318m 10°C 10_3 0cm 0% 3mph 3mph 1015mB
15:00 3309m 17°C 17_0 0cm 0% 0mph 2mph 1014mB
18:00 3343m 22°C 22_3 0cm 25% 3mph 2mph 1012mB
21:00 3516m 22°C 22_2 0cm 95% 2mph 2mph 1011mB
0:00 3592m 21°C 21_3 0cm 75% 3mph 3mph 1010mB
3:00 3594m 17°C 17_2 0cm 75% 2mph 3mph 1010mB
6:00 3565m 12°C 12_0 0cm 84% 0mph 0mph 1012mB
9:00 3549m 10°C 10_1 0cm 100% 1mph 1mph 1013mB
12:00 3516m 12°C 12_2 0cm 100% 2mph 2mph 1014mB
15:00 3474m 14°C 14_2 0cm 100% 2mph 3mph 1014mB
18:00 3534m 20°C 20_4 0cm 62% 4mph 4mph 1012mB
21:00 3633m 19°C 19_5 0cm 3% 5mph 5mph 1011mB
0:00 3717m 19°C 19_5 0cm 51% 5mph 6mph 1010mB
3:00 3644m 16°C 16_3 0cm 88% 3mph 3mph 1010mB
6:00 3599m 12°C 12_1 0cm 93% 1mph 1mph 1011mB
9:00 3487m 10°C 10_2 0cm 83% 2mph 3mph 1011mB
12:00 3372m 11°C 11_1 0cm 56% 1mph 2mph 1012mB
15:00 3276m 12°C 12_4 0cm 73% 4mph 5mph 1012mB
18:00 3232m 18°C 18_5 0cm 36% 5mph 6mph 1012mB
21:00 3268m 18°C 18_6 0cm 36% 6mph 7mph 1010mB
0:00 3292m 18°C 18_6 0cm 57% 6mph 6mph 1009mB
3:00 3272m 15°C 15_2 0cm 67% 2mph 2mph 1009mB
6:00 3232m 10°C 10_3 0cm 84% 3mph 4mph 1009mB
9:00 2935m 8°C 8_5 0cm 95% 5mph 7mph 1009mB
12:00 2509m 11°C 11_4 0cm 96% 4mph 4mph 1011mB
15:00 2328m 8°C 8_6 0cm 34% 6mph 10mph 1011mB
18:00 2383m 11°C 11_7 0cm 18% 7mph 11mph 1010mB
21:00 2509m 11°C 11_10 0cm 58% 10mph 18mph 1008mB
0:00 2613m 11°C 11_9 0cm 57% 9mph 16mph 1007mB
3:00 2537m 8°C 8_6 0cm 34% 6mph 7mph 1008mB
6:00 2418m 3°C 3_2 0cm 47% 2mph 3mph 1010mB
9:00 2292m 2°C 2_2 0cm 57% 2mph 3mph 1010mB
12:00 2134m 3°C 3_2 0cm 35% 2mph 3mph 1011mB
15:00 1895m 4°C 4_5 0cm 67% 5mph 6mph 1009mB
18:00 1928m 5°C 5_5 0cm 83% 5mph 7mph 1009mB
21:00 1878m 4°C 4_4 0cm 100% 4mph 5mph 1009mB
0:00 1995m 3°C 3_3 0cm 100% 3mph 4mph 1010mB
3:00 2115m 5°C 5_4 0cm 99% 4mph 5mph 1013mB
6:00 1950m 2°C 2_4 0cm 97% 4mph 4mph 1016mB
9:00 1954m 2°C 2_3 0cm 100% 3mph 3mph 1017mB
12:00 2038m 3°C 3_3 0cm 100% 3mph 4mph 1019mB
15:00 2637m 6°C 6_4 0cm 94% 4mph 5mph 1018mB
18:00 2797m 10°C 10_3 0cm 97% 3mph 5mph 1017mB
21:00 2813m 10°C 10_4 0cm 100% 4mph 6mph 1016mB
0:00 2979m 10°C 10_3 0cm 98% 3mph 4mph 1016mB
3:00 3075m 12°C 12_2 0cm 71% 2mph 3mph 1016mB
6:00 3034m 7°C 7_3 0cm 41% 3mph 4mph 1018mB
9:00 3019m 5°C 5_3 0cm 2% 3mph 4mph 1017mB
12:00 2948m 7°C 7_3 0cm 13% 3mph 4mph 1018mB
15:00 2915m 12°C 12_0 0cm 72% 0mph 2mph 1016mB
18:00 3082m 17°C 17_1 0cm 83% 1mph 2mph 1014mB
21:00 3201m 16°C 16_2 0cm 100% 2mph 2mph 1012mB
0:00 3235m 15°C 15_2 0cm 100% 2mph 4mph 1011mB
3:00 3220m 13°C 13_1 0cm 59% 1mph 1mph 1011mB
6:00 3143m 7°C 7_3 0cm 45% 3mph 4mph 1013mB
9:00 3094m 6°C 6_3 0cm 47% 3mph 3mph 1013mB
12:00 3028m 7°C 7_2 0cm 67% 2mph 3mph 1013mB
15:00 2995m 12°C 12_1 0cm 46% 1mph 1mph 1012mB
18:00 3103m 18°C 18_1 0cm 25% 1mph 1mph 1009mB
21:00 3220m 18°C 18_2 0cm 4% 2mph 2mph 1007mB
0:00 3303m 16°C 16_2 0cm 51% 2mph 2mph 1006mB
3:00 3318m 13°C 13_3 0cm 90% 3mph 4mph 1006mB
6:00 3224m 9°C 9_3 0cm 95% 3mph 4mph 1008mB
9:00 2994m 9°C 9_2 0cm 100% 2mph 2mph 1008mB
12:00 2823m 9°C 9_4 0cm 100% 4mph 7mph 1009mB
15:00 2920m 11°C 11_3 0cm 38% 3mph 4mph 1009mB
18:00 3015m 16°C 16_4 0cm 19% 4mph 4mph 1008mB
21:00 3061m 15°C 15_4 0cm 0% 4mph 6mph 1008mB
0:00 3131m 15°C 15_5 0cm 28% 5mph 7mph 1007mB
3:00 3111m 14°C 14_3 0cm 25% 3mph 3mph 1008mB
6:00 3119m 9°C 9_3 0cm 49% 3mph 4mph 1011mB
9:00 3054m 8°C 8_2 0cm 100% 2mph 2mph 1013mB
12:00 3031m 10°C 10_2 0cm 93% 2mph 3mph 1014mB
15:00 3041m 13°C 13_4 0cm 39% 4mph 6mph 1013mB
18:00 3047m 17°C 17_6 0cm 54% 6mph 8mph 1012mB
21:00 3237m 17°C 17_6 0cm 94% 6mph 9mph 1011mB
0:00 3320m 17°C 17_4 0cm 91% 4mph 9mph 1010mB
3:00 3412m 15°C 15_2 0cm 100% 2mph 2mph 1010mB
6:00 3433m 11°C 11_3 0cm 98% 3mph 4mph 1012mB
Afternoon 1.10417mm 0.0625 3316m 19°C 19_6 0cm 100% 6mph 13mph 1010mB
Morning 0.0416667mm 1 3220m 8°C 8_1 0cm 38% 1mph 1mph 1014mB
Afternoon 0.5625mm 1.3125 3012m 15°C 15_5 0cm 34% 5mph 7mph 1011mB
Morning 0.0625mm 0.125 2748m 4°C 4_1 0cm 72% 1mph 2mph 1013mB
Afternoon 0.0208333mm 1.5 2637m 13°C 13_4 0cm 91% 4mph 5mph 1012mB
Morning 0.0208333mm 0.0625 2716m 4°C 4_1 0cm 10% 1mph 2mph 1018mB
Afternoon 0.0416667mm 0 2690m 15°C 15_3 0cm 67% 3mph 2mph 1015mB
Morning 3.27083mm 0.0625 3059m 7°C 7_3 0cm 76% 3mph 4mph 1016mB
Afternoon 0.0208333mm 0.0625 3063m 18°C 18_3 0cm 1% 3mph 3mph 1015mB
Morning 0.104167mm 0 3372m 9°C 9_2 0cm 9% 2mph 3mph 1017mB
Afternoon 0.208333mm 0 3371m 19°C 19_4 0cm 96% 4mph 6mph 1015mB
Morning 0mm 0 3498m 10°C 10_3 0cm 28% 3mph 4mph 1016mB

16 day outlook at a glance

Forecast issued: 6/16/2019 2:34:08 PM

Chat

Your comments and questions. In a resort? Let us know what it's like!


Characters left 250

For terms and conditions see Readers Comments on the Cookie and privacy policy page.